Regional Weather Roundup
Issued by NWS Goodland, KS

Home | Current Version | Previous Version | Graphics & Text | Print | Product List | Glossary On
Versions: 1 2 3 4 5 6 7 8 9 10 11 12 13 14 15 16 17 18 19 20 21 22 23 24 25 26 27 28 29 30 31 32 33 34 35 36 37 38 39 40 41 42 43 44 45 46 47 48 49 50
000
ASUS43 KGLD 042008
RWRGLD

GOODLAND FORECAST AREA HOURLY WEATHER ROUNDUP
NATIONAL WEATHER SERVICE GOODLAND KS
100 PM MST SUN DEC 04 2016

...OFFICIAL OBSERVATIONS...

CITY           SKY/WX    TMP DP  RH WIND       PRES   REMARKS
GOODLAND KS    SUNNY     48   9  20 SW9       29.93F
HILL CITY KS   SUNNY     52  20  28 W9        29.96F
IMPERIAL NEB   SUNNY     49   9  19 W14G23    29.90F
MCCOOK NEB     SUNNY     52  17  25 NW17G24   29.91F
AKRON CO       SUNNY     49   5  16 SW12G22   29.88F
BURLINGTON CO  SUNNY     48   8  19 SW17      29.94F
LIMON CO       SUNNY     47   5  18 S15       29.91F
$$

...UNOFFICIAL OBSERVATIONS...

CITY           SKY/WX    TMP DP  RH WIND       PRES   REMARKS
COLBY KS       SUNNY     48  19  32 W8        29.96F
LENORA KS        N/A     50  32  50 MISG        N/A
NORTON KS      SUNNY     50  12  22 W8        29.93F
SHARON SPRINGS   N/A     51  17  25 W8          N/A
TRENTON NEB      N/A     49  32  52 W7          N/A
KIT CARSON CO    N/A     45  15  29 MISG        N/A
YUMA CO        FAIR      48   9  20 SW10G20   29.88F
$$




USA.gov is the U.S. government's official web portal to all federal, state and local government web resources and services.